Time,TemperatureF,DewpointF,PressureIn,WindDirection,WindDirectionDegrees,WindSpeedMPH,WindSpeedGustMPH,Humidity,HourlyPrecipIn,Conditions,Clouds,dailyrainin,SoftwareType,DateUTC
2013-07-16 00:02:00,60.7,46.3,29.91,WSW,255,1.0,4.0,59,0.00,,CLR,0.00,VWS V14.01,2013-07-16 06:02:00,
2013-07-16 00:07:00,60.4,46.5,29.90,WSW,252,0.0,1.0,60,0.00,,CLR,0.00,VWS V14.01,2013-07-16 06:07:00,
2013-07-16 00:12:00,60.1,46.2,29.90,NW,317,0.0,4.0,60,0.00,,CLR,0.00,VWS V14.01,2013-07-16 06:12:00,
2013-07-16 00:17:00,59.9,46.0,29.90,WSW,252,0.0,4.0,60,0.00,,CLR,0.00,VWS V14.01,2013-07-16 06:17:00,
2013-07-16 00:22:00,59.8,45.9,29.90,NNE,28,0.0,3.0,60,0.00,,CLR,0.00,VWS V14.01,2013-07-16 06:22:00,
2013-07-16 00:27:00,59.6,46.2,29.90,SW,218,0.0,3.0,61,0.00,,CLR,0.00,VWS V14.01,2013-07-16 06:27:00,
2013-07-16 00:32:00,59.3,46.3,29.90,West,278,0.0,5.0,62,0.00,,CLR,0.00,VWS V14.01,2013-07-16 06:32:00,
2013-07-16 00:37:00,59.2,46.2,29.90,West,272,0.0,2.0,62,0.00,,CLR,0.00,VWS V14.01,2013-07-16 06:37:00,
2013-07-16 00:42:00,59.0,46.0,29.90,West,270,0.0,1.0,62,0.00,,CLR,0.00,VWS V14.01,2013-07-16 06:42:00,
2013-07-16 00:48:00,58.9,46.3,29.90,WSW,241,0.0,3.0,63,0.00,,CLR,0.00,VWS V14.01,2013-07-16 06:48:00,
2013-07-16 00:53:00,58.7,46.2,29.91,West,262,0.0,3.0,63,0.00,,CLR,0.00,VWS V14.01,2013-07-16 06:53:00,
2013-07-16 00:58:00,58.6,46.1,29.91,SW,221,0.0,1.0,63,0.00,,CLR,0.00,VWS V14.01,2013-07-16 06:58:00,
2013-07-16 01:03:00,58.4,45.9,29.91,SSW,213,0.0,3.0,63,0.00,,CLR,0.00,VWS V14.01,2013-07-16 07:03:00,
2013-07-16 01:08:00,58.1,45.6,29.92,SW,219,0.0,1.0,63,0.00,,CLR,0.00,VWS V14.01,2013-07-16 07:08:00,
2013-07-16 01:13:00,58.0,45.9,29.92,SW,219,0.0,1.0,64,0.00,,CLR,0.00,VWS V14.01,2013-07-16 07:13:00,
2013-07-16 01:18:00,57.6,45.1,29.92,SW,222,0.0,1.0,63,0.00,,CLR,0.00,VWS V14.01,2013-07-16 07:18:00,
2013-07-16 01:23:00,57.5,45.0,29.92,SW,222,0.0,0.0,63,0.00,,CLR,0.00,VWS V14.01,2013-07-16 07:23:00,
2013-07-16 01:28:00,57.3,45.2,29.92,SW,222,0.0,0.0,64,0.00,,CLR,0.00,VWS V14.01,2013-07-16 07:28:00,
2013-07-16 01:33:00,57.0,45.0,29.93,NNW,340,0.0,1.0,64,0.00,,CLR,0.00,VWS V14.01,2013-07-16 07:33:00,
2013-07-16 01:38:00,56.9,44.9,29.93,West,261,0.0,1.0,64,0.00,,CLR,0.00,VWS V14.01,2013-07-16 07:38:00,
2013-07-16 01:43:00,56.7,44.7,29.93,North,11,0.0,1.0,64,0.00,,CLR,0.00,VWS V14.01,2013-07-16 07:43:00,
2013-07-16 01:49:00,56.6,44.6,29.94,SE,144,0.0,1.0,64,0.00,,CLR,0.00,VWS V14.01,2013-07-16 07:49:00,
2013-07-16 01:54:00,56.5,44.5,29.94,SE,144,0.0,0.0,64,0.00,,CLR,0.00,VWS V14.01,2013-07-16 07:54:00,
2013-07-16 01:59:00,56.3,44.7,29.94,SE,144,0.0,0.0,65,0.00,,CLR,0.00,VWS V14.01,2013-07-16 07:59:00,
2013-07-16 02:04:00,56.2,44.2,29.95,SSE,151,0.0,2.0,64,0.00,,CLR,0.00,VWS V14.01,2013-07-16 08:04:00,
2013-07-16 02:09:00,55.9,44.3,29.95,SSE,151,0.0,0.0,65,0.00,,CLR,0.00,VWS V14.01,2013-07-16 08:09:00,
2013-07-16 02:14:00,55.7,44.1,29.95,SSE,151,0.0,0.0,65,0.00,,CLR,0.00,VWS V14.01,2013-07-16 08:14:00,
2013-07-16 02:19:00,55.4,43.8,29.94,SSE,151,0.0,0.0,65,0.00,,CLR,0.00,VWS V14.01,2013-07-16 08:19:00,
2013-07-16 02:24:00,55.3,43.8,29.94,SSE,151,0.0,0.0,65,0.00,,CLR,0.00,VWS V14.01,2013-07-16 08:24:00,
2013-07-16 02:29:00,55.1,43.6,29.94,SSE,151,0.0,0.0,65,0.00,,CLR,0.00,VWS V14.01,2013-07-16 08:29:00,
2013-07-16 02:34:00,55.0,43.5,29.94,NNW,347,0.0,0.0,65,0.00,,CLR,0.00,VWS V14.01,2013-07-16 08:34:00,
2013-07-16 02:39:00,54.8,43.7,29.94,NW,306,0.0,0.0,66,0.00,,CLR,0.00,VWS V14.01,2013-07-16 08:39:00,
2013-07-16 02:44:00,54.8,43.3,29.94,WSW,240,0.0,0.0,65,0.00,,CLR,0.00,VWS V14.01,2013-07-16 08:44:00,
2013-07-16 02:49:00,54.7,43.2,29.94,SW,227,0.0,0.0,65,0.00,,CLR,0.00,VWS V14.01,2013-07-16 08:49:00,
2013-07-16 02:54:00,54.7,43.2,29.94,West,267,0.0,0.0,65,0.00,,CLR,0.00,VWS V14.01,2013-07-16 08:54:00,
2013-07-16 03:00:00,54.4,42.9,29.94,West,268,0.0,0.0,65,0.00,,CLR,0.00,VWS V14.01,2013-07-16 09:00:00,
2013-07-16 03:05:00,54.1,42.6,29.95,West,266,0.0,0.0,65,0.00,,CLR,0.00,VWS V14.01,2013-07-16 09:05:00,
2013-07-16 03:10:00,53.9,42.8,29.95,West,266,0.0,0.0,66,0.00,,CLR,0.00,VWS V14.01,2013-07-16 09:10:00,
2013-07-16 03:15:00,53.8,42.7,29.95,West,267,0.0,0.0,66,0.00,,CLR,0.00,VWS V14.01,2013-07-16 09:15:00,
2013-07-16 03:20:00,53.5,42.4,29.93,West,267,0.0,0.0,66,0.00,,CLR,0.00,VWS V14.01,2013-07-16 09:20:00,
2013-07-16 03:25:00,53.3,42.2,29.93,West,267,0.0,0.0,66,0.00,,CLR,0.00,VWS V14.01,2013-07-16 09:25:00,
2013-07-16 03:30:00,53.2,42.2,29.93,West,267,0.0,0.0,66,0.00,,CLR,0.00,VWS V14.01,2013-07-16 09:30:00,
2013-07-16 03:35:00,53.2,42.5,29.93,West,267,0.0,0.0,67,0.00,,CLR,0.00,VWS V14.01,2013-07-16 09:35:00,
2013-07-16 03:40:00,53.1,42.5,29.93,West,267,0.0,1.0,67,0.00,,CLR,0.00,VWS V14.01,2013-07-16 09:40:00,
2013-07-16 03:46:00,52.9,42.3,29.93,West,268,0.0,0.0,67,0.00,,CLR,0.00,VWS V14.01,2013-07-16 09:46:00,
2013-07-16 03:51:00,52.8,42.5,29.93,West,268,0.0,0.0,68,0.00,,CLR,0.00,VWS V14.01,2013-07-16 09:51:00,
2013-07-16 03:56:00,52.6,42.3,29.93,West,268,0.0,0.0,68,0.00,,CLR,0.00,VWS V14.01,2013-07-16 09:56:00,
2013-07-16 04:01:00,52.5,42.3,29.93,West,268,0.0,0.0,68,0.00,,CLR,0.00,VWS V14.01,2013-07-16 10:01:00,
2013-07-16 04:06:00,52.3,42.1,29.94,West,268,0.0,0.0,68,0.00,,CLR,0.00,VWS V14.01,2013-07-16 10:06:00,
2013-07-16 04:11:00,52.3,42.1,29.94,SSW,197,0.0,0.0,68,0.00,,CLR,0.00,VWS V14.01,2013-07-16 10:11:00,
2013-07-16 04:16:00,52.3,42.1,29.94,SSW,197,0.0,0.0,68,0.00,,CLR,0.00,VWS V14.01,2013-07-16 10:16:00,
2013-07-16 04:21:00,52.2,42.0,29.93,SSW,197,0.0,0.0,68,0.00,,CLR,0.00,VWS V14.01,2013-07-16 10:21:00,
2013-07-16 04:26:00,52.0,41.8,29.93,SSW,197,0.0,0.0,68,0.00,,CLR,0.00,VWS V14.01,2013-07-16 10:26:00,
2013-07-16 04:31:00,51.9,42.1,29.93,SSW,197,0.0,0.0,69,0.00,,CLR,0.00,VWS V14.01,2013-07-16 10:31:00,
2013-07-16 04:36:00,51.6,41.8,29.93,SSW,197,0.0,0.0,69,0.00,,CLR,0.00,VWS V14.01,2013-07-16 10:36:00,
2013-07-16 04:41:00,51.4,42.0,29.93,SSW,202,0.0,1.0,70,0.00,,CLR,0.00,VWS V14.01,2013-07-16 10:41:00,
2013-07-16 04:46:00,51.3,41.9,29.93,SSW,202,0.0,0.0,70,0.00,,CLR,0.00,VWS V14.01,2013-07-16 10:46:00,
2013-07-16 04:51:00,51.3,41.9,29.93,SSW,202,0.0,0.0,70,0.00,,CLR,0.00,VWS V14.01,2013-07-16 10:51:00,
2013-07-16 04:57:00,51.1,41.7,29.93,SSW,201,0.0,0.0,70,0.00,,CLR,0.00,VWS V14.01,2013-07-16 10:57:00,
2013-07-16 05:02:00,51.0,41.9,29.93,SSW,201,0.0,0.0,71,0.00,,CLR,0.00,VWS V14.01,2013-07-16 11:02:00,
2013-07-16 05:07:00,50.8,41.8,29.94,SSW,201,0.0,0.0,71,0.00,,CLR,0.00,VWS V14.01,2013-07-16 11:07:00,
2013-07-16 05:12:00,50.7,41.7,29.94,SSW,201,0.0,0.0,71,0.00,,CLR,0.00,VWS V14.01,2013-07-16 11:12:00,
2013-07-16 05:17:00,50.5,41.5,29.94,SSW,202,0.0,0.0,71,0.00,,CLR,0.00,VWS V14.01,2013-07-16 11:17:00,
2013-07-16 05:22:00,50.4,41.7,29.96,SSW,201,0.0,0.0,72,0.00,,CLR,0.00,VWS V14.01,2013-07-16 11:22:00,
2013-07-16 05:27:00,50.1,41.4,29.96,SSW,201,0.0,0.0,72,0.00,,CLR,0.00,VWS V14.01,2013-07-16 11:27:00,
2013-07-16 05:32:00,50.1,41.4,29.96,SSW,201,0.0,0.0,72,0.00,,CLR,0.00,VWS V14.01,2013-07-16 11:32:00,
2013-07-16 05:37:00,49.9,41.2,29.98,SSW,201,0.0,0.0,72,0.00,,CLR,0.00,VWS V14.01,2013-07-16 11:37:00,
2013-07-16 05:42:00,49.9,41.2,29.98,SSW,202,0.0,0.0,72,0.00,,CLR,0.00,VWS V14.01,2013-07-16 11:42:00,
2013-07-16 05:47:00,49.8,41.5,29.98,SSW,202,0.0,0.0,73,0.00,,CLR,0.00,VWS V14.01,2013-07-16 11:47:00,
2013-07-16 05:52:00,49.8,41.5,29.98,South,183,0.0,0.0,73,0.00,,CLR,0.00,VWS V14.01,2013-07-16 11:52:00,
2013-07-16 05:57:00,49.6,41.3,29.98,South,183,0.0,0.0,73,0.00,,CLR,0.00,VWS V14.01,2013-07-16 11:57:00,
2013-07-16 06:02:00,49.6,41.3,29.98,South,183,0.0,0.0,73,0.00,,CLR,0.00,VWS V14.01,2013-07-16 12:02:00,
2013-07-16 06:07:00,49.6,41.3,29.98,SSW,209,0.0,0.0,73,0.00,,CLR,0.00,VWS V14.01,2013-07-16 12:07:00,
2013-07-16 06:13:00,49.6,41.3,29.98,SSW,209,0.0,0.0,73,0.00,,CLR,0.00,VWS V14.01,2013-07-16 12:13:00,
2013-07-16 06:18:00,49.5,41.6,29.98,SSW,209,0.0,0.0,74,0.00,,CLR,0.00,VWS V14.01,2013-07-16 12:18:00,
2013-07-16 06:23:00,49.5,41.6,29.99,SSW,209,0.0,0.0,74,0.00,,CLR,0.00,VWS V14.01,2013-07-16 12:23:00,
2013-07-16 06:28:00,49.4,41.5,29.99,SSW,209,0.0,0.0,74,0.00,,CLR,0.00,VWS V14.01,2013-07-16 12:28:00,
2013-07-16 06:33:00,49.4,41.5,30.00,SSW,209,0.0,0.0,74,0.00,,CLR,0.00,VWS V14.01,2013-07-16 12:33:00,
2013-07-16 06:38:00,49.4,41.8,30.00,SSW,209,0.0,0.0,75,0.00,,CLR,0.00,VWS V14.01,2013-07-16 12:38:00,
2013-07-16 06:43:00,49.4,41.5,30.00,SSW,209,0.0,0.0,74,0.00,,CLR,0.00,VWS V14.01,2013-07-16 12:43:00,
2013-07-16 06:48:00,49.5,41.6,30.00,North,360,0.0,0.0,74,0.00,,CLR,0.00,VWS V14.01,2013-07-16 12:48:00,
2013-07-16 06:53:00,49.5,41.6,30.00,NE,50,0.0,0.0,74,0.00,,CLR,0.00,VWS V14.01,2013-07-16 12:53:00,
2013-07-16 06:58:00,49.8,41.9,30.00,NE,55,0.0,0.0,74,0.00,,CLR,0.00,VWS V14.01,2013-07-16 12:58:00,
2013-07-16 07:03:00,49.9,41.6,29.99,NE,55,0.0,0.0,73,0.00,,CLR,0.00,VWS V14.01,2013-07-16 13:03:00,
2013-07-16 07:08:00,50.1,41.8,29.99,West,281,0.0,1.0,73,0.00,,CLR,0.00,VWS V14.01,2013-07-16 13:08:00,
2013-07-16 07:13:00,50.4,41.7,29.99,NNE,21,0.0,4.0,72,0.00,,CLR,0.00,VWS V14.01,2013-07-16 13:13:00,
2013-07-16 07:18:00,50.5,41.8,30.02,ENE,69,0.0,1.0,72,0.00,,CLR,0.00,VWS V14.01,2013-07-16 13:18:00,
2013-07-16 07:23:00,50.7,41.7,30.02,SSE,153,0.0,2.0,71,0.00,,CLR,0.00,VWS V14.01,2013-07-16 13:23:00,
2013-07-16 07:29:00,51.0,41.6,30.02,NE,34,0.0,1.0,70,0.00,,CLR,0.00,VWS V14.01,2013-07-16 13:29:00,
2013-07-16 07:34:00,51.1,41.7,30.02,NE,34,0.0,1.0,70,0.00,,CLR,0.00,VWS V14.01,2013-07-16 13:34:00,
2013-07-16 07:39:00,51.3,41.9,30.02,WNW,296,0.0,1.0,70,0.00,,CLR,0.00,VWS V14.01,2013-07-16 13:39:00,
2013-07-16 07:44:00,51.4,41.6,30.02,North,5,0.0,0.0,69,0.00,,CLR,0.00,VWS V14.01,2013-07-16 13:44:00,
2013-07-16 07:49:00,51.6,41.8,30.01,North,5,0.0,0.0,69,0.00,,CLR,0.00,VWS V14.01,2013-07-16 13:49:00,
2013-07-16 07:54:00,51.7,41.5,30.01,SSW,198,0.0,0.0,68,0.00,,CLR,0.00,VWS V14.01,2013-07-16 13:54:00,
2013-07-16 07:59:00,52.2,42.0,30.01,WSW,241,1.0,1.0,68,0.00,,CLR,0.00,VWS V14.01,2013-07-16 13:59:00,
2013-07-16 08:04:00,52.5,41.9,30.01,NNE,25,0.0,1.0,67,0.00,,CLR,0.00,VWS V14.01,2013-07-16 14:04:00,
2013-07-16 08:09:00,52.6,41.6,30.01,NNE,25,0.0,0.0,66,0.00,,CLR,0.00,VWS V14.01,2013-07-16 14:09:00,
2013-07-16 08:14:00,52.6,41.6,30.01,NNE,19,0.0,0.0,66,0.00,,CLR,0.00,VWS V14.01,2013-07-16 14:14:00,
2013-07-16 08:19:00,52.8,41.8,30.05,NNE,19,0.0,0.0,66,0.00,,CLR,0.00,VWS V14.01,2013-07-16 14:19:00,
2013-07-16 08:24:00,53.1,41.7,30.05,NNE,19,0.0,0.0,65,0.00,,CLR,0.00,VWS V14.01,2013-07-16 14:24:00,
2013-07-16 08:30:00,53.2,41.8,30.05,SSE,150,1.0,1.0,65,0.00,,CLR,0.00,VWS V14.01,2013-07-16 14:30:00,
2013-07-16 08:35:00,53.3,41.5,30.06,ENE,69,0.0,0.0,64,0.00,,CLR,0.00,VWS V14.01,2013-07-16 14:35:00,
2013-07-16 08:40:00,53.5,41.6,30.06,North,5,0.0,0.0,64,0.00,,CLR,0.00,VWS V14.01,2013-07-16 14:40:00,
2013-07-16 08:45:00,53.6,41.7,30.06,NNE,26,0.0,1.0,64,0.00,,CLR,0.00,VWS V14.01,2013-07-16 14:45:00,
2013-07-16 08:50:00,53.9,41.6,30.05,SW,236,0.0,0.0,63,0.00,,CLR,0.00,VWS V14.01,2013-07-16 14:50:00,
2013-07-16 08:55:00,54.2,41.9,30.05,East,79,0.0,2.0,63,0.00,,CLR,0.00,VWS V14.01,2013-07-16 14:55:00,
2013-07-16 09:00:00,54.8,41.6,30.05,NNE,26,1.0,1.0,61,0.00,,CLR,0.00,VWS V14.01,2013-07-16 15:00:00,
2013-07-16 09:05:00,55.6,41.5,30.04,North,11,0.0,0.0,59,0.00,,CLR,0.00,VWS V14.01,2013-07-16 15:05:00,
2013-07-16 09:10:00,56.2,42.1,30.04,NE,48,0.0,1.0,59,0.00,,CLR,0.00,VWS V14.01,2013-07-16 15:10:00,
2013-07-16 09:15:00,56.7,42.1,30.04,NNW,338,1.0,2.0,58,0.00,,CLR,0.00,VWS V14.01,2013-07-16 15:15:00,
2013-07-16 09:20:00,57.0,41.9,30.06,NE,55,0.0,2.0,57,0.00,,CLR,0.00,VWS V14.01,2013-07-16 15:20:00,
2013-07-16 09:25:00,57.5,41.5,30.06,ENE,68,1.0,3.0,55,0.00,,CLR,0.00,VWS V14.01,2013-07-16 15:25:00,
2013-07-16 09:30:00,57.5,41.5,30.06,North,350,0.0,0.0,55,0.00,,CLR,0.00,VWS V14.01,2013-07-16 15:30:00,
2013-07-16 09:36:00,57.8,41.8,30.06,East,98,2.0,2.0,55,0.00,,CLR,0.00,VWS V14.01,2013-07-16 15:36:00,
2013-07-16 09:41:00,58.1,42.0,30.06,ENE,60,2.0,3.0,55,0.00,,CLR,0.00,VWS V14.01,2013-07-16 15:41:00,
2013-07-16 09:46:00,58.3,41.8,30.06,NE,35,0.0,1.0,54,0.00,,CLR,0.00,VWS V14.01,2013-07-16 15:46:00,
2013-07-16 09:51:00,58.4,41.3,30.06,NE,53,0.0,3.0,53,0.00,,CLR,0.00,VWS V14.01,2013-07-16 15:51:00,
2013-07-16 09:56:00,58.4,41.3,30.06,ENE,70,0.0,2.0,53,0.00,,CLR,0.00,VWS V14.01,2013-07-16 15:56:00,
2013-07-16 10:01:00,58.7,41.6,30.06,NE,36,0.0,2.0,53,0.00,,CLR,0.00,VWS V14.01,2013-07-16 16:01:00,
2013-07-16 10:06:00,58.9,41.3,30.04,North,5,0.0,3.0,52,0.00,,CLR,0.00,VWS V14.01,2013-07-16 16:06:00,
2013-07-16 10:11:00,59.0,41.4,30.04,South,190,0.0,3.0,52,0.00,,CLR,0.00,VWS V14.01,2013-07-16 16:11:00,
2013-07-16 10:16:00,59.0,40.9,30.04,North,360,0.0,4.0,51,0.00,,CLR,0.00,VWS V14.01,2013-07-16 16:16:00,
2013-07-16 10:21:00,59.3,41.7,30.06,NE,41,0.0,3.0,52,0.00,,CLR,0.00,VWS V14.01,2013-07-16 16:21:00,
2013-07-16 10:26:00,59.8,41.7,30.06,WSW,242,0.0,4.0,51,0.00,,CLR,0.00,VWS V14.01,2013-07-16 16:26:00,
2013-07-16 10:31:00,60.4,42.2,30.06,East,82,0.0,4.0,51,0.00,,CLR,0.00,VWS V14.01,2013-07-16 16:31:00,
2013-07-16 10:36:00,60.9,41.6,30.05,NNW,333,0.0,2.0,49,0.00,,CLR,0.00,VWS V14.01,2013-07-16 16:36:00,
2013-07-16 10:41:00,61.6,41.7,30.05,NE,53,1.0,3.0,48,0.00,,CLR,0.00,VWS V14.01,2013-07-16 16:41:00,
2013-07-16 10:46:00,62.4,41.4,30.05,SW,233,0.0,2.0,46,0.00,,CLR,0.00,VWS V14.01,2013-07-16 16:46:00,
2013-07-16 10:52:00,62.9,42.4,30.03,SW,234,0.0,0.0,47,0.00,,CLR,0.00,VWS V14.01,2013-07-16 16:52:00,
2013-07-16 10:57:00,63.5,42.4,30.03,NNW,347,0.0,5.0,46,0.00,,CLR,0.00,VWS V14.01,2013-07-16 16:57:00,
2013-07-16 11:02:00,64.2,42.4,30.03,NE,51,1.0,3.0,45,0.00,,CLR,0.00,VWS V14.01,2013-07-16 17:02:00,
2013-07-16 11:07:00,65.0,41.4,30.04,SSW,202,0.0,2.0,42,0.00,,CLR,0.00,VWS V14.01,2013-07-16 17:07:00,
2013-07-16 11:12:00,65.5,42.4,30.04,ENE,61,0.0,4.0,43,0.00,,CLR,0.00,VWS V14.01,2013-07-16 17:12:00,
2013-07-16 11:17:00,66.0,42.3,30.04,NNE,14,2.0,2.0,42,0.00,,CLR,0.00,VWS V14.01,2013-07-16 17:17:00,
2013-07-16 11:22:00,65.8,41.5,30.03,West,277,1.0,3.0,41,0.00,,CLR,0.00,VWS V14.01,2013-07-16 17:22:00,
2013-07-16 11:27:00,65.0,41.4,30.03,NNW,327,1.0,1.0,42,0.00,,CLR,0.00,VWS V14.01,2013-07-16 17:27:00,
2013-07-16 11:32:00,65.0,43.2,30.03,NNE,21,2.0,3.0,45,0.00,,CLR,0.00,VWS V14.01,2013-07-16 17:32:00,
2013-07-16 11:37:00,65.8,42.1,30.03,NNE,30,0.0,1.0,42,0.00,,CLR,0.00,VWS V14.01,2013-07-16 17:37:00,
2013-07-16 11:42:00,65.8,42.7,30.03,South,174,0.0,1.0,43,0.00,,CLR,0.00,VWS V14.01,2013-07-16 17:42:00,
2013-07-16 11:47:00,66.3,45.5,30.03,NNE,20,1.0,3.0,47,0.00,,CLR,0.00,VWS V14.01,2013-07-16 17:47:00,
2013-07-16 11:52:00,66.1,44.7,30.03,West,273,0.0,2.0,46,0.00,,CLR,0.00,VWS V14.01,2013-07-16 17:52:00,
2013-07-16 11:57:00,65.6,41.9,30.03,West,273,2.0,3.0,42,0.00,,CLR,0.00,VWS V14.01,2013-07-16 17:57:00,
2013-07-16 12:02:00,65.0,43.7,30.03,West,281,0.0,5.0,46,0.00,,CLR,0.00,VWS V14.01,2013-07-16 18:02:00,
2013-07-16 12:08:00,65.0,43.7,30.03,NNE,12,2.0,5.0,46,0.00,,CLR,0.00,VWS V14.01,2013-07-16 18:08:00,
2013-07-16 12:13:00,65.5,43.6,30.03,NW,315,0.0,4.0,45,0.00,,CLR,0.00,VWS V14.01,2013-07-16 18:13:00,
2013-07-16 12:18:00,66.1,43.0,30.03,NW,316,0.0,0.0,43,0.00,,CLR,0.00,VWS V14.01,2013-07-16 18:18:00,
2013-07-16 12:23:00,66.9,43.1,30.03,North,355,4.0,4.0,42,0.00,,CLR,0.00,VWS V14.01,2013-07-16 18:23:00,
2013-07-16 12:28:00,67.9,45.2,30.03,NE,36,1.0,4.0,44,0.00,,CLR,0.00,VWS V14.01,2013-07-16 18:28:00,
2013-07-16 12:33:00,68.9,43.6,30.03,North,5,0.0,4.0,40,0.00,,CLR,0.00,VWS V14.01,2013-07-16 18:33:00,
2013-07-16 12:38:00,70.1,43.3,30.02,SW,230,1.0,5.0,38,0.00,,CLR,0.00,VWS V14.01,2013-07-16 18:38:00,
2013-07-16 12:43:00,69.9,46.4,30.02,West,281,2.0,3.0,43,0.00,,CLR,0.00,VWS V14.01,2013-07-16 18:43:00,
2013-07-16 12:48:00,70.4,46.9,30.00,West,274,1.0,6.0,43,0.00,,CLR,0.00,VWS V14.01,2013-07-16 18:48:00,
2013-07-16 12:53:00,71.3,44.4,30.00,WSW,257,1.0,4.0,38,0.00,,CLR,0.00,VWS V14.01,2013-07-16 18:53:00,
2013-07-16 12:58:00,71.6,44.0,30.00,WSW,247,2.0,4.0,37,0.00,,CLR,0.00,VWS V14.01,2013-07-16 18:58:00,
2013-07-16 13:03:00,71.6,46.0,29.98,South,188,0.0,3.0,40,0.00,,CLR,0.00,VWS V14.01,2013-07-16 19:03:00,
2013-07-16 13:08:00,72.1,45.1,29.98,North,9,5.0,5.0,38,0.00,,CLR,0.00,VWS V14.01,2013-07-16 19:08:00,
2013-07-16 13:14:00,73.5,47.7,29.98,NE,34,3.0,6.0,40,0.00,,CLR,0.00,VWS V14.01,2013-07-16 19:14:00,
2013-07-16 13:19:00,74.0,46.8,29.98,NW,321,2.0,6.0,38,0.00,,CLR,0.00,VWS V14.01,2013-07-16 19:19:00,
2013-07-16 13:24:00,74.2,44.1,29.98,SW,215,5.0,5.0,34,0.00,,CLR,0.00,VWS V14.01,2013-07-16 19:24:00,
2013-07-16 13:29:00,74.2,46.3,29.98,WSW,257,1.0,4.0,37,0.00,,CLR,0.00,VWS V14.01,2013-07-16 19:29:00,
2013-07-16 13:34:00,73.5,46.4,29.97,West,260,0.0,4.0,38,0.00,,CLR,0.00,VWS V14.01,2013-07-16 19:34:00,
2013-07-16 13:39:00,73.9,46.0,29.97,West,260,9.0,9.0,37,0.00,,CLR,0.00,VWS V14.01,2013-07-16 19:39:00,
2013-07-16 13:44:00,74.0,46.8,29.97,NNW,341,2.0,9.0,38,0.00,,CLR,0.00,VWS V14.01,2013-07-16 19:44:00,
2013-07-16 13:49:00,74.2,45.6,29.96,West,261,0.0,4.0,36,0.00,,CLR,0.00,VWS V14.01,2013-07-16 19:49:00,
2013-07-16 13:54:00,74.6,47.3,29.96,WSW,257,2.0,2.0,38,0.00,,CLR,0.00,VWS V14.01,2013-07-16 19:54:00,
2013-07-16 13:59:00,74.6,45.9,29.96,WSW,245,3.0,5.0,36,0.00,,CLR,0.00,VWS V14.01,2013-07-16 19:59:00,
2013-07-16 14:04:00,74.2,46.3,29.96,SSW,197,3.0,3.0,37,0.00,,CLR,0.00,VWS V14.01,2013-07-16 20:04:00,
2013-07-16 14:09:00,74.9,46.2,29.96,SSW,195,3.0,3.0,36,0.00,,CLR,0.00,VWS V14.01,2013-07-16 20:09:00,
2013-07-16 14:15:00,75.6,46.8,29.96,NNE,28,2.0,3.0,36,0.00,,CLR,0.00,VWS V14.01,2013-07-16 20:15:00,
2013-07-16 14:20:00,76.5,47.6,29.96,NNE,14,2.0,3.0,36,0.00,,CLR,0.00,VWS V14.01,2013-07-16 20:20:00,
2013-07-16 14:25:00,77.2,47.5,29.96,SSW,207,0.0,3.0,35,0.00,,CLR,0.00,VWS V14.01,2013-07-16 20:25:00,
2013-07-16 14:30:00,77.4,46.1,29.96,West,269,0.0,3.0,33,0.00,,CLR,0.00,VWS V14.01,2013-07-16 20:30:00,
2013-07-16 14:35:00,77.4,45.3,29.96,WSW,241,0.0,6.0,32,0.00,,CLR,0.00,VWS V14.01,2013-07-16 20:35:00,
2013-07-16 14:40:00,77.7,45.5,29.96,WSW,254,3.0,8.0,32,0.00,,CLR,0.00,VWS V14.01,2013-07-16 20:40:00,
2013-07-16 14:45:00,77.9,45.7,29.96,NE,55,0.0,5.0,32,0.00,,CLR,0.00,VWS V14.01,2013-07-16 20:45:00,
2013-07-16 14:50:00,79.0,47.5,29.94,WSW,244,0.0,7.0,33,0.00,,CLR,0.00,VWS V14.01,2013-07-16 20:50:00,
2013-07-16 14:56:00,78.8,45.6,29.94,SW,223,0.0,9.0,31,0.00,,CLR,0.00,VWS V14.01,2013-07-16 20:56:00,
2013-07-16 15:01:00,77.9,48.1,29.94,East,90,1.0,4.0,35,0.00,,CLR,0.00,VWS V14.01,2013-07-16 21:01:00,
2013-07-16 15:06:00,78.8,43.9,29.93,NNE,21,0.0,9.0,29,0.00,,CLR,0.00,VWS V14.01,2013-07-16 21:06:00,
2013-07-16 15:11:00,79.8,44.8,29.93,SW,219,1.0,8.0,29,0.00,,CLR,0.00,VWS V14.01,2013-07-16 21:11:00,
2013-07-16 15:16:00,79.4,46.2,29.93,WSW,252,0.0,9.0,31,0.00,,CLR,0.00,VWS V14.01,2013-07-16 21:16:00,
2013-07-16 15:21:00,79.2,45.1,29.94,ESE,107,0.0,6.0,30,0.00,,CLR,0.00,VWS V14.01,2013-07-16 21:21:00,
2013-07-16 15:27:00,79.8,45.6,29.94,SW,227,1.0,7.0,30,0.00,,CLR,0.00,VWS V14.01,2013-07-16 21:27:00,
2013-07-16 15:32:00,79.4,45.3,29.94,South,180,0.0,4.0,30,0.00,,CLR,0.00,VWS V14.01,2013-07-16 21:32:00,
2013-07-16 15:37:00,79.4,46.2,29.92,East,96,7.0,10.0,31,0.00,,CLR,0.00,VWS V14.01,2013-07-16 21:37:00,
2013-07-16 15:42:00,79.2,45.1,29.92,SW,223,12.0,16.0,30,0.00,,CLR,0.00,VWS V14.01,2013-07-16 21:42:00,
2013-07-16 15:47:00,79.2,46.0,29.92,NE,54,1.0,5.0,31,0.00,,CLR,0.00,VWS V14.01,2013-07-16 21:47:00,
2013-07-16 15:52:00,79.2,45.1,29.93,WSW,246,12.0,13.0,30,0.00,,CLR,0.00,VWS V14.01,2013-07-16 21:52:00,
2013-07-16 15:57:00,78.6,45.5,29.93,WSW,246,2.0,13.0,31,0.00,,CLR,0.00,VWS V14.01,2013-07-16 21:57:00,
2013-07-16 16:02:00,78.5,45.4,29.93,WSW,241,5.0,11.0,31,0.00,,CLR,0.00,VWS V14.01,2013-07-16 22:02:00,
2013-07-16 16:03:00,78.3,46.9,29.92,South,186,2.0,11.0,33,0.00,,CLR,0.00,VWS V14.01,2013-07-16 22:03:00,
2013-07-16 16:08:00,78.5,45.4,29.92,West,269,2.0,7.0,31,0.00,,CLR,0.00,VWS V14.01,2013-07-16 22:08:00,
2013-07-16 16:13:00,78.5,47.0,29.92,SW,219,3.0,9.0,33,0.00,,CLR,0.00,VWS V14.01,2013-07-16 22:13:00,
2013-07-16 16:19:00,78.3,46.0,29.92,SW,223,4.0,10.0,32,0.00,,CLR,0.00,VWS V14.01,2013-07-16 22:19:00,
2013-07-16 16:24:00,78.6,45.5,29.92,SE,140,4.0,13.0,31,0.00,,CLR,0.00,VWS V14.01,2013-07-16 22:24:00,
2013-07-16 16:29:00,78.6,46.3,29.92,ENE,61,0.0,10.0,32,0.00,,CLR,0.00,VWS V14.01,2013-07-16 22:29:00,
2013-07-16 16:34:00,79.2,45.1,29.91,NNW,348,0.0,9.0,30,0.00,,CLR,0.00,VWS V14.01,2013-07-16 22:34:00,
2013-07-16 16:39:00,79.2,46.8,29.91,WSW,246,2.0,10.0,32,0.00,,CLR,0.00,VWS V14.01,2013-07-16 22:39:00,
2013-07-16 16:44:00,79.2,45.1,29.91,SW,225,3.0,9.0,30,0.00,,CLR,0.00,VWS V14.01,2013-07-16 22:44:00,
2013-07-16 16:49:00,79.6,45.5,29.91,East,89,1.0,6.0,30,0.00,,CLR,0.00,VWS V14.01,2013-07-16 22:49:00,
2013-07-16 16:54:00,79.8,45.6,29.91,East,97,0.0,6.0,30,0.00,,CLR,0.00,VWS V14.01,2013-07-16 22:54:00,
2013-07-16 16:59:00,79.4,45.3,29.91,SSW,197,1.0,6.0,30,0.00,,CLR,0.00,VWS V14.01,2013-07-16 22:59:00,
2013-07-16 17:05:00,78.8,44.8,29.90,SSE,167,1.0,3.0,30,0.00,,CLR,0.00,VWS V14.01,2013-07-16 23:05:00,
2013-07-16 17:10:00,78.8,46.5,29.90,NE,46,0.0,1.0,32,0.00,,CLR,0.00,VWS V14.01,2013-07-16 23:10:00,
2013-07-16 17:15:00,79.4,44.4,29.90,WSW,239,3.0,9.0,29,0.00,,CLR,0.00,VWS V14.01,2013-07-16 23:15:00,
2013-07-16 17:20:00,79.0,45.8,29.91,WSW,241,1.0,6.0,31,0.00,,CLR,0.00,VWS V14.01,2013-07-16 23:20:00,
2013-07-16 17:25:00,79.4,47.8,29.91,East,87,0.0,3.0,33,0.00,,CLR,0.00,VWS V14.01,2013-07-16 23:25:00,
2013-07-16 17:30:00,80.1,45.9,29.91,SW,234,3.0,4.0,30,0.00,,CLR,0.00,VWS V14.01,2013-07-16 23:30:00,
2013-07-16 17:35:00,79.6,46.3,29.90,South,179,1.0,3.0,31,0.00,,CLR,0.00,VWS V14.01,2013-07-16 23:35:00,
2013-07-16 17:40:00,79.9,44.8,29.90,SW,215,4.0,4.0,29,0.00,,CLR,0.00,VWS V14.01,2013-07-16 23:40:00,
2013-07-16 17:45:00,79.4,45.3,29.90,West,281,0.0,3.0,30,0.00,,CLR,0.00,VWS V14.01,2013-07-16 23:45:00,
2013-07-16 17:50:00,78.5,46.2,29.91,WSW,244,0.0,6.0,32,0.00,,CLR,0.00,VWS V14.01,2013-07-16 23:50:00,
2013-07-16 17:56:00,78.1,45.0,29.91,WSW,250,2.0,6.0,31,0.00,,CLR,0.00,VWS V14.01,2013-07-16 23:56:00,
2013-07-16 18:01:00,77.7,44.7,29.91,NE,36,3.0,6.0,31,0.00,,CLR,0.00,VWS V14.01,2013-07-17 00:01:00,
2013-07-16 18:06:00,78.3,45.2,29.90,SW,233,4.0,5.0,31,0.00,,CLR,0.00,VWS V14.01,2013-07-17 00:06:00,
2013-07-16 18:11:00,78.1,45.0,29.90,SSW,208,4.0,9.0,31,0.00,,CLR,0.00,VWS V14.01,2013-07-17 00:11:00,
2013-07-16 18:16:00,78.1,45.0,29.90,SSW,195,3.0,5.0,31,0.00,,CLR,0.00,VWS V14.01,2013-07-17 00:16:00,
2013-07-16 18:21:00,78.1,45.0,29.90,WSW,240,0.0,5.0,31,0.00,,CLR,0.00,VWS V14.01,2013-07-17 00:21:00,
2013-07-16 18:26:00,78.1,45.0,29.90,SW,232,3.0,5.0,31,0.00,,CLR,0.00,VWS V14.01,2013-07-17 00:26:00,
2013-07-16 18:31:00,77.7,45.5,29.90,SW,225,1.0,6.0,32,0.00,,CLR,0.00,VWS V14.01,2013-07-17 00:31:00,
2013-07-16 18:36:00,77.6,45.4,29.91,SW,225,2.0,5.0,32,0.00,,CLR,0.00,VWS V14.01,2013-07-17 00:36:00,
2013-07-16 18:41:00,76.8,46.3,29.91,WSW,254,0.0,5.0,34,0.00,,CLR,0.00,VWS V14.01,2013-07-17 00:41:00,
2013-07-16 18:46:00,76.7,47.0,29.91,WSW,245,0.0,3.0,35,0.00,,CLR,0.00,VWS V14.01,2013-07-17 00:46:00,
2013-07-16 18:51:00,76.5,46.8,29.92,SSW,205,2.0,2.0,35,0.00,,CLR,0.00,VWS V14.01,2013-07-17 00:51:00,
2013-07-16 18:56:00,76.1,45.7,29.92,WSW,241,0.0,3.0,34,0.00,,CLR,0.00,VWS V14.01,2013-07-17 00:56:00,
2013-07-16 19:01:00,76.0,46.4,29.92,West,263,0.0,5.0,35,0.00,,CLR,0.00,VWS V14.01,2013-07-17 01:01:00,
2013-07-16 19:06:00,75.6,46.8,29.93,WSW,252,0.0,4.0,36,0.00,,CLR,0.00,VWS V14.01,2013-07-17 01:06:00,
2013-07-16 19:11:00,75.1,46.3,29.93,SW,232,0.0,2.0,36,0.00,,CLR,0.00,VWS V14.01,2013-07-17 01:11:00,
2013-07-16 19:17:00,74.7,46.7,29.93,West,265,0.0,2.0,37,0.00,,CLR,0.00,VWS V14.01,2013-07-17 01:17:00,
2013-07-16 19:22:00,74.2,47.0,29.93,SW,236,0.0,3.0,38,0.00,,CLR,0.00,VWS V14.01,2013-07-17 01:22:00,
2013-07-16 19:27:00,73.9,46.7,29.93,ESE,120,0.0,2.0,38,0.00,,CLR,0.00,VWS V14.01,2013-07-17 01:27:00,
2013-07-16 19:32:00,73.5,46.4,29.93,NE,50,0.0,3.0,38,0.00,,CLR,0.00,VWS V14.01,2013-07-17 01:32:00,
2013-07-16 19:37:00,73.3,46.9,29.95,SW,232,0.0,3.0,39,0.00,,CLR,0.00,VWS V14.01,2013-07-17 01:37:00,
2013-07-16 19:42:00,73.0,46.6,29.95,WSW,254,3.0,3.0,39,0.00,,CLR,0.00,VWS V14.01,2013-07-17 01:42:00,
2013-07-16 19:47:00,72.8,46.4,29.95,WNW,284,0.0,1.0,39,0.00,,CLR,0.00,VWS V14.01,2013-07-17 01:47:00,
2013-07-16 19:52:00,72.7,46.3,29.96,West,267,0.0,4.0,39,0.00,,CLR,0.00,VWS V14.01,2013-07-17 01:52:00,
2013-07-16 19:57:00,72.5,46.8,29.96,West,266,0.0,0.0,40,0.00,,CLR,0.00,VWS V14.01,2013-07-17 01:57:00,
2013-07-16 20:02:00,72.3,46.7,29.96,NNW,341,0.0,5.0,40,0.00,,CLR,0.00,VWS V14.01,2013-07-17 02:02:00,
2013-07-16 20:07:00,72.3,46.7,29.97,SE,140,0.0,3.0,40,0.00,,CLR,0.00,VWS V14.01,2013-07-17 02:07:00,
2013-07-16 20:12:00,72.1,46.5,29.97,East,96,0.0,0.0,40,0.00,,CLR,0.00,VWS V14.01,2013-07-17 02:12:00,
2013-07-16 20:17:00,72.1,45.8,29.97,WNW,282,0.0,0.0,39,0.00,,CLR,0.00,VWS V14.01,2013-07-17 02:17:00,
2013-07-16 20:22:00,72.1,45.8,29.96,WSW,248,2.0,4.0,39,0.00,,CLR,0.00,VWS V14.01,2013-07-17 02:22:00,
2013-07-16 20:27:00,72.0,46.4,29.96,SW,229,0.0,2.0,40,0.00,,CLR,0.00,VWS V14.01,2013-07-17 02:27:00,
2013-07-16 20:32:00,72.0,46.4,29.96,WSW,246,0.0,7.0,40,0.00,,CLR,0.00,VWS V14.01,2013-07-17 02:32:00,
2013-07-16 20:38:00,71.8,46.2,29.96,NNW,339,0.0,1.0,40,0.00,,CLR,0.00,VWS V14.01,2013-07-17 02:38:00,
2013-07-16 20:43:00,71.8,46.2,29.96,NNE,13,0.0,3.0,40,0.00,,CLR,0.00,VWS V14.01,2013-07-17 02:43:00,
2013-07-16 20:48:00,71.5,45.9,29.96,WNW,292,0.0,1.0,40,0.00,,CLR,0.00,VWS V14.01,2013-07-17 02:48:00,
2013-07-16 20:49:00,71.5,45.9,29.97,WNW,292,0.0,1.0,40,0.00,,CLR,0.00,VWS V14.01,2013-07-17 02:49:00,
2013-07-16 20:54:00,71.3,46.4,29.97,SW,227,0.0,1.0,41,0.00,,CLR,0.00,VWS V14.01,2013-07-17 02:54:00,
2013-07-16 20:59:00,70.9,46.0,29.97,WSW,250,0.0,6.0,41,0.00,,CLR,0.00,VWS V14.01,2013-07-17 02:59:00,
2013-07-16 21:04:00,70.8,46.0,29.98,WSW,246,0.0,1.0,41,0.00,,CLR,0.00,VWS V14.01,2013-07-17 03:04:00,
2013-07-16 21:10:00,70.4,45.6,29.98,WSW,247,0.0,0.0,41,0.00,,CLR,0.00,VWS V14.01,2013-07-17 03:10:00,
2013-07-16 21:15:00,70.4,46.2,29.98,WSW,247,0.0,0.0,42,0.00,,CLR,0.00,VWS V14.01,2013-07-17 03:15:00,
2013-07-16 21:20:00,70.1,46.0,29.96,WSW,247,0.0,0.0,42,0.00,,CLR,0.00,VWS V14.01,2013-07-17 03:20:00,
2013-07-16 21:25:00,69.9,46.4,29.96,WSW,247,0.0,0.0,43,0.00,,CLR,0.00,VWS V14.01,2013-07-17 03:25:00,
2013-07-16 21:30:00,69.6,46.1,29.96,WSW,240,0.0,1.0,43,0.00,,CLR,0.00,VWS V14.01,2013-07-17 03:30:00,
2013-07-16 21:35:00,69.3,45.9,29.96,SW,236,0.0,0.0,43,0.00,,CLR,0.00,VWS V14.01,2013-07-17 03:35:00,
2013-07-16 21:40:00,69.1,46.9,29.96,SW,236,0.0,0.0,45,0.00,,CLR,0.00,VWS V14.01,2013-07-17 03:40:00,
2013-07-16 21:46:00,68.9,46.7,29.96,SW,236,0.0,0.0,45,0.00,,CLR,0.00,VWS V14.01,2013-07-17 03:46:00,
2013-07-16 21:51:00,68.6,46.4,29.97,SW,236,0.0,2.0,45,0.00,,CLR,0.00,VWS V14.01,2013-07-17 03:51:00,
2013-07-16 21:56:00,68.6,47.0,29.97,SW,236,0.0,0.0,46,0.00,,CLR,0.00,VWS V14.01,2013-07-17 03:56:00,
2013-07-16 22:01:00,68.4,46.8,29.97,SW,236,0.0,0.0,46,0.00,,CLR,0.00,VWS V14.01,2013-07-17 04:01:00,
2013-07-16 22:02:00,68.3,47.3,29.97,SW,236,0.0,0.0,47,0.00,,CLR,0.00,VWS V14.01,2013-07-17 04:02:00,
2013-07-16 22:04:00,68.3,46.7,29.98,SW,236,0.0,0.0,46,0.00,,CLR,0.00,VWS V14.01,2013-07-17 04:04:00,
2013-07-16 22:09:00,68.1,46.6,29.98,NNW,335,0.0,0.0,46,0.00,,CLR,0.00,VWS V14.01,2013-07-17 04:09:00,
2013-07-16 22:14:00,68.1,47.1,29.98,NNW,338,0.0,0.0,47,0.00,,CLR,0.00,VWS V14.01,2013-07-17 04:14:00,
2013-07-16 22:19:00,67.9,46.4,29.97,NNW,337,0.0,0.0,46,0.00,,CLR,0.00,VWS V14.01,2013-07-17 04:19:00,
2013-07-16 22:24:00,67.8,46.9,29.97,NNW,337,0.0,0.0,47,0.00,,CLR,0.00,VWS V14.01,2013-07-17 04:24:00,
2013-07-16 22:29:00,67.6,46.7,29.97,NNW,337,0.0,0.0,47,0.00,,CLR,0.00,VWS V14.01,2013-07-17 04:29:00,
2013-07-16 22:34:00,67.6,46.7,29.98,NNW,337,0.0,0.0,47,0.00,,CLR,0.00,VWS V14.01,2013-07-17 04:34:00,
2013-07-16 22:39:00,67.4,46.5,29.98,NNW,340,0.0,0.0,47,0.00,,CLR,0.00,VWS V14.01,2013-07-17 04:39:00,
2013-07-16 22:44:00,67.4,47.0,29.98,NNW,340,0.0,0.0,48,0.00,,CLR,0.00,VWS V14.01,2013-07-17 04:44:00,
2013-07-16 22:49:00,67.3,47.5,29.98,NNW,340,0.0,0.0,49,0.00,,CLR,0.00,VWS V14.01,2013-07-17 04:49:00,
2013-07-16 22:54:00,67.1,46.8,29.98,NNW,342,0.0,0.0,48,0.00,,CLR,0.00,VWS V14.01,2013-07-17 04:54:00,
2013-07-16 22:55:00,67.1,46.8,29.98,NNW,342,0.0,0.0,48,0.00,,CLR,0.00,VWS V14.01,2013-07-17 04:55:00,
2013-07-16 22:59:00,67.1,46.8,29.98,NNW,342,0.0,0.0,48,0.00,,CLR,0.00,VWS V14.01,2013-07-17 04:59:00,
2013-07-16 23:04:00,67.1,46.8,29.98,NNW,342,0.0,0.0,48,0.00,,CLR,0.00,VWS V14.01,2013-07-17 05:04:00,
2013-07-16 23:10:00,66.9,46.6,29.98,NNW,342,0.0,0.0,48,0.00,,CLR,0.00,VWS V14.01,2013-07-17 05:10:00,
2013-07-16 23:15:00,66.9,47.7,29.98,NNW,342,0.0,0.0,50,0.00,,CLR,0.00,VWS V14.01,2013-07-17 05:15:00,
2013-07-16 23:20:00,66.8,47.0,29.97,NNW,342,0.0,0.0,49,0.00,,CLR,0.00,VWS V14.01,2013-07-17 05:20:00,
2013-07-16 23:25:00,66.6,47.4,29.97,NNW,342,0.0,0.0,50,0.00,,CLR,0.00,VWS V14.01,2013-07-17 05:25:00,
2013-07-16 23:30:00,66.4,47.2,29.97,NNW,342,0.0,0.0,50,0.00,,CLR,0.00,VWS V14.01,2013-07-17 05:30:00,
2013-07-16 23:35:00,66.4,47.7,29.98,NNW,342,0.0,0.0,51,0.00,,CLR,0.00,VWS V14.01,2013-07-17 05:35:00,
2013-07-16 23:40:00,66.1,47.5,29.98,NNW,342,0.0,0.0,51,0.00,,CLR,0.00,VWS V14.01,2013-07-17 05:40:00,
2013-07-16 23:45:00,66.0,47.4,29.98,NNW,342,0.0,0.0,51,0.00,,CLR,0.00,VWS V14.01,2013-07-17 05:45:00,
2013-07-16 23:50:00,65.8,47.7,29.98,NNW,342,0.0,0.0,52,0.00,,CLR,0.00,VWS V14.01,2013-07-17 05:50:00,
2013-07-16 23:55:00,65.6,47.5,29.98,NNW,342,0.0,0.0,52,0.00,,CLR,0.00,VWS V14.01,2013-07-17 05:55:00,